Location: Newark
(12.4436°N, 0.6167°W)
Time: 08:44:58
(UTC+00:00)

Vanguard 1 - Pass Details

Date: 16 December 2019
Orbit: 651 x 3832 km, 34.2° (Epoch: 17 January)

Event Time Altitude Azimuth Distance (km) Brightness Sun altitude
Rises 22:08:02 0° 206° (SSW) 4,738 13.9 -61.7°
Reaches altitude 10° 22:11:01 10° 197° (SSW) 4,113 13.4 -62.3°
Enters shadow 22:11:35 12° 195° (SSW) 4,012 13.3 -62.5°
Maximum altitude 22:21:46 37° 133° (SE) 3,532 - -64.7°
Drops below altitude 10° 22:39:05 10° 73° (ENE) 6,582 - -68.3°
Sets 22:45:26 0° 67° (ENE) 7,855 - -69.6°
